Theta_e
277 277 277 277 278 278 278 278 276 273 274 276 277 281 281 282 284 283 282 287 290 291 292 292 292 293 294 294 295 296 296 297 298 300 301 302 303 305
277 275 275 276 276 277 278 278 278 276 273 276 278 279 280 283 283 283 282 287 288 289 291 291 292 292 293 294 294 294 295 296 296 298 299 300 301 303
274 274 275 275 275 275 276 276 276 276 274 276 278 279 278 278 280 281 283 282 283 288 290 290 291 292 292 292 293 293 293 294 295 296 297 298 299 301
273 273 274 276 274 274 275 275 275 276 275 273 276 277 277 279 279 279 282 283 283 287 289 290 291 291 291 291 291 292 292 293 293 294 295 296 297 298
273 273 273 273 273 274 274 274 275 277 276 275 275 277 278 279 279 280 280 281 283 287 288 289 289 289 290 290 291 291 291 291 292 292 293 293 294 295
274 274 273 273 273 273 274 274 275 275 275 275 275 276 277 278 279 278 278 280 280 283 285 286 287 288 289 289 289 289 289 290 291 291 291 292 292 293
274 275 275 276 279 278 277 274 274 273 274 274 274 275 275 277 276 277 279 279 279 280 280 281 282 282 283 286 287 288 289 290 291 291 292 292 292 292
273 274 275 277 277 280 281 282 281 277 275 275 275 275 276 276 277 277 276 275 273 280 279 279 281 280 282 283 287 288 289 290 290 291 291 292 292 292
274 274 274 276 277 276 278 280 281 282 282 279 277 276 276 276 276 275 276 275 275 278 278 276 280 279 282 283 287 288 289 289 289 290 290 290 291 291
274 273 273 273 274 275 275 275 275 276 277 277 276 276 276 276 277 277 276 277 278 279 279 276 280 279 281 282 287 288 288 288 288 288 289 289 289 290
273 273 273 273 276 278 275 275 275 276 280 281 282 282 283 283 283 280 278 277 276 277 279 277 278 278 279 280 282 286 286 287 287 287 288 288 288 289
273 273 276 275 277 278 275 274 272 274 275 276 276 278 280 279 282 280 277 274 275 274 278 277 277 278 275 279 279 281 281 284 285 286 286 287 287 284
272 272 273 276 277 278 278 275 276 277 277 276 276 277 277 278 278 278 279 278 276 276 280 279 277 276 275 275 277 279 279 279 280 281 284 285 286 285
272 272 273 276 277 277 277 278 279 279 276 276 276 276 276 277 278 278 279 279 280 278 279 278 275 275 274 273 273 277 278 279 279 279 280 283 285 285
274 275 276 277 277 277 279 279 279 276 276 275 274 275 276 276 277 277 277 277 277 277 278 278 277 276 276 274 274 275 275 277 279 278 279 279 279 280
272 271 273 275 276 276 275 276 275 276 275 274 274 275 275 274 274 274 273 274 274 274 277 278 277 277 275 275 275 274 276 274 277 278 278 279 279 280
270 268 268 269 269 270 271 271 272 273 273 273 272 272 272 273 273 274 273 273 272 272 272 275 277 277 276 275 273 275 275 275 276 277 277 276 277 278
272 269 268 269 269 270 271 271 273 273 272 271 271 271 270 271 271 272 273 272 271 271 272 273 273 273 273 275 278 274 275 275 276 276 277 275 275 277
271 271 270 271 271 271 271 270 269 270 271 270 269 269 269 270 270 270 271 271 271 271 271 272 272 271 268 267 273 279 274 275 275 275 276 275 275 276
267 267 266 264 263 266 267 267 267 267 268 268 268 268 268 268 268 269 270 269 269 269 269 270 270 270 268 268 269 272 278 274 274 273 273 275 277 281
264 263 265 262 257 258 261 263 265 265 265 265 265 266 266 267 267 268 269 272 272 270 268 269 271 277 274 274 270 271 273 278 278 274 274 273 272 273
262 264 263 261 258 257 259 260 262 263 263 263 264 264 265 266 266 266 267 267 267 267 268 269 271 271 270 269 267 268 270 272 276 278 279 279 274 271
259 258 256 256 258 259 258 259 261 262 263 263 263 264 264 264 265 266 266 267 267 267 268 268 269 270 269 269 270 269 269 270 271 271 272 277 279 280
Wind_Speed
4 5 4 4 3 4 4 4 5 8 7 4 4 4 4 4 6 4 5 11 19 19 19 19 18 19 19 19 20 20 20 21 22 22 23 24 24 23
4 5 4 3 4 4 4 4 4 7 11 2 5 5 6 8 7 8 6 18 16 20 20 18 19 19 20 20 20 21 21 22 23 24 25 25 25 24
5 5 6 6 4 4 4 4 5 5 10 8 5 5 4 6 7 7 8 6 9 19 20 20 20 19 20 20 21 23 23 23 23 24 24 25 26 23
6 6 6 7 6 5 4 6 6 6 8 13 8 7 7 8 9 8 9 10 9 15 22 23 21 20 21 23 23 22 24 23 23 24 23 23 22 24
6 7 7 6 7 5 5 5 6 8 7 8 9 5 6 7 10 8 8 11 8 20 21 20 21 25 25 24 24 23 23 24 23 22 23 23 23 24
8 8 8 8 8 7 8 8 8 8 8 8 9 8 6 7 8 8 8 8 8 8 14 18 22 26 26 24 24 23 23 23 24 24 24 24 24 25
8 9 10 12 20 17 10 10 10 9 9 10 11 10 10 8 7 8 8 8 9 7 9 11 9 9 9 17 21 23 24 25 26 26 26 26 27 27
10 9 10 17 17 24 25 27 20 11 13 11 12 13 13 9 6 6 9 10 12 8 9 11 8 9 10 10 21 26 28 28 28 27 25 27 28 27
10 10 11 10 17 12 17 24 23 26 24 14 12 9 10 8 9 11 12 11 13 10 11 13 9 12 10 12 25 26 28 29 30 29 28 29 30 31
11 11 12 13 13 15 15 15 16 14 14 12 14 14 13 13 13 13 16 15 14 12 12 15 10 12 10 10 25 28 27 27 28 30 30 31 31 31
11 12 13 14 18 25 17 16 16 14 15 26 28 29 31 32 27 13 11 9 9 8 7 10 10 12 11 10 9 23 28 28 28 29 31 31 31 32
11 13 22 20 25 27 18 16 16 15 14 15 14 18 23 20 27 17 10 11 12 13 12 11 11 8 8 10 10 10 10 22 28 29 30 31 32 15
10 9 9 23 27 27 28 15 15 15 17 16 13 11 11 11 11 12 12 12 13 14 12 10 8 10 10 12 12 12 11 13 12 15 25 29 30 27
12 11 12 25 27 29 25 26 30 27 13 11 9 8 9 10 9 9 13 12 10 12 10 11 10 12 12 13 15 12 12 12 10 12 12 19 29 31
11 15 26 29 30 26 27 28 28 13 11 9 8 8 7 7 8 8 10 12 13 14 13 15 12 13 12 14 15 13 16 13 10 12 12 13 13 12
16 13 17 23 26 22 17 14 9 8 8 8 9 6 5 6 8 8 10 10 11 12 12 14 14 14 13 14 14 15 14 16 12 13 12 13 14 13
16 10 10 10 10 10 10 10 9 8 8 7 6 7 8 9 11 10 11 11 11 11 12 10 13 15 15 18 16 15 16 15 15 15 14 15 15 15
13 11 11 11 12 11 11 12 8 8 5 6 8 9 10 11 11 10 9 10 12 12 12 11 12 13 13 17 25 17 16 16 15 17 16 16 17 15
12 11 10 10 9 4 2 3 4 5 7 7 9 10 11 11 15 11 11 11 12 12 13 12 12 12 15 19 15 26 17 15 14 14 14 15 18 17
6 6 3 3 2 2 2 3 5 6 7 9 10 10 11 11 11 12 12 12 12 13 13 13 14 14 17 20 20 16 27 18 16 17 17 17 20 32
1 1 2 3 3 3 3 3 6 7 8 8 9 9 10 10 12 12 13 23 24 15 16 16 17 31 17 17 18 18 16 32 31 21 19 19 19 17
4 4 4 4 4 4 4 5 6 8 9 9 9 10 11 11 13 14 14 14 15 16 17 16 17 15 16 18 21 24 18 17 25 37 40 36 18 21
5 5 4 3 4 4 5 5 7 9 9 10 10 11 12 12 13 14 15 16 17 17 19 18 16 16 18 18 26 20 27 23 17 18 20 36 41 42
Wind_Direction
278 273 264 260 259 258 251 240 260 286 281 259 290 311 311 299 289 288 278 292 300 306 305 306 312 313 314 315 315 314 314 313 313 312 315 312 308 305
276 279 278 272 271 267 265 259 247 264 277 265 275 276 289 288 282 292 286 294 297 296 296 300 304 305 307 306 310 311 311 310 310 307 306 306 304 302
268 264 261 264 260 262 266 259 267 264 273 276 268 262 280 294 295 285 270 282 280 283 291 293 296 299 300 304 304 307 305 304 303 302 301 300 298 299
261 265 266 273 269 260 250 252 256 256 268 279 277 273 263 270 269 270 282 280 270 282 289 294 290 301 305 303 299 299 299 298 300 298 295 291 296 296
249 254 257 255 261 257 259 263 265 271 270 277 283 275 273 268 272 270 270 275 272 284 282 289 305 301 296 298 297 297 299 296 294 294 297 294 292 289
255 257 253 249 253 253 260 263 265 266 268 270 274 278 273 275 272 274 290 282 278 298 296 288 290 291 295 297 298 300 296 292 290 289 288 288 288 287
252 259 261 259 260 251 243 240 245 247 252 257 263 267 267 266 265 279 281 288 289 295 292 280 273 274 274 291 290 292 289 283 284 286 286 285 287 287
259 261 265 274 278 278 278 278 263 234 236 242 248 253 256 264 272 280 281 282 283 268 269 273 274 277 277 275 279 284 288 288 286 286 286 289 286 281
256 263 267 269 276 279 285 283 284 285 283 276 274 273 276 268 266 269 267 261 263 264 267 271 266 274 274 274 280 282 284 285 289 286 288 287 286 284
256 259 261 263 261 264 263 263 262 262 265 269 273 276 268 268 262 257 257 260 261 257 257 264 267 267 271 271 274 281 283 286 291 291 289 288 287 284
260 258 258 260 264 269 270 271 273 270 272 274 275 274 268 268 264 257 256 263 279 277 256 264 271 274 273 267 266 278 284 287 288 287 289 289 288 287
260 259 264 267 268 269 264 262 265 264 262 265 265 268 272 274 278 281 283 279 279 278 269 266 273 269 274 270 272 270 273 281 282 285 285 285 284 280
262 263 262 268 272 274 274 268 265 262 259 262 260 255 249 256 259 255 257 260 264 265 269 269 270 273 272 280 272 273 273 275 276 275 276 277 279 279
257 257 257 264 272 273 273 272 272 273 273 266 262 252 244 256 260 258 259 260 262 274 278 276 276 272 273 274 274 273 267 266 266 268 267 268 273 275
260 259 261 263 264 267 277 280 276 273 274 274 273 263 260 266 271 281 282 278 271 267 269 268 266 270 266 269 274 271 273 270 264 265 267 265 264 263
288 288 280 275 270 268 272 282 281 270 260 260 267 269 274 267 268 268 273 276 275 273 267 266 267 267 269 266 267 269 266 270 266 261 262 263 261 257
249 247 250 255 258 260 262 263 255 260 268 265 269 275 278 282 280 277 273 271 269 277 279 274 272 266 263 266 268 265 266 264 265 264 262 263 259 256
237 234 235 239 243 248 250 255 250 257 273 288 286 283 281 276 275 273 272 272 272 271 273 275 278 279 273 263 253 263 261 262 262 263 258 262 264 254
251 242 239 244 247 231 247 281 276 278 289 286 280 275 273 271 279 275 271 269 269 270 269 271 272 272 276 273 271 256 265 263 263 261 258 254 260 259
280 275 245 179 194 204 230 254 272 277 273 271 270 270 270 272 273 268 266 269 271 272 272 267 262 259 258 266 276 268 260 267 261 261 260 259 258 263
303 288 187 189 213 218 230 238 254 260 262 259 258 262 266 265 263 262 264 268 270 273 273 270 264 267 271 276 272 269 261 252 251 253 257 259 261 263
238 235 225 209 210 215 230 235 248 260 264 265 266 265 265 262 263 265 263 265 266 265 266 269 272 269 264 259 263 267 267 264 261 260 259 259 260 261
227 222 219 215 220 226 233 237 249 263 267 267 265 264 262 262 260 260 262 262 263 266 267 269 267 263 259 260 262 265 263 264 261 261 255 253 257 259